Regional Weather Roundup
Issued by NWS

Home | Current Version | Previous Version | Text Only | Print | Product List | Glossary Off
Versions: 1 2 3 4 5 6 7 8 9 10 11 12 13 14 15 16 17 18 19 20 21 22 23 24 25 26 27 28 29 30 31 32 33 34 35 36 37 38 39 40 41 42 43 44 45 46 47 48 49 50

000
ASUS43 KDMX 291406
RWRIA

WEATHER ROUNDUP FOR IOWA
NATIONAL WEATHER SERVICE DES MOINES IA
900 AM CDT SAT APR 29 2017

NOTE: "FAIR" INDICATES FEW OR NO CLOUDS BELOW 12,000 FEET WITH NO
SIGNIFICANT WEATHER AND/OR OBSTRUCTIONS TO VISIBILITY.

* - THESE STATIONS ARE NOT NWS STATIONS...THUS NOT UNDER NWS
QUALITY CONTROL.  THEY ALSO DO NOT REPORT WEATHER SUCH
AS PRECIPITATION OR FOG.

IAZ001>003-012>014-020>022-031>034-043>046-291500-
   NORTHWEST IOWA

CITY           SKY/WX    TMP DP  RH WIND       PRES   REMARKS
CARROLL *      CLOUDY    43  36  75 NE13G20   30.14S
CHEROKEE *     CLOUDY    40  33  76 N9        30.22R WCI  34
DENISON *      PTSUNNY   41  34  75 NE16G22   30.15R
LE MARS *      CLOUDY    41  30  65 NE13G20   30.23S
ORANGE CITY *  CLOUDY    41  30  65 NE10G16   30.23S
SHELDON *      CLOUDY    41  32  70 NE15      30.23R
SIOUX CITY     CLOUDY    43  31  62 NE14      30.20S
SPENCER        PTSUNNY   40  32  73 NE15      30.24R WCI  32
STORM LAKE *   PTSUNNY   41  32  70 NE18      30.18F
$$

IAZ055>058-069>071-079>083-090>094-291500-
   SOUTHWEST IOWA

CITY           SKY/WX    TMP DP  RH WIND       PRES   REMARKS
ATLANTIC *     CLOUDY    43  36  75 NE17G24   30.07F
AUDUBON *      CLOUDY    41  36  81 NE15      30.10F
CLARINDA *     CLOUDY    45  39  81 NE15G23   30.04F
COUNCIL BLFS * CLOUDY    43  37  81 NE15G24   30.07F
CRESTON *      CLOUDY    43  37  81 NE21G28   30.03F
HARLAN  *      PTSUNNY   43  36  75 NE14      30.13F
LAMONI         CLOUDY    44  41  89 NE21G30   29.97F
RED OAK *      CLOUDY    45  37  76 NE20G29   30.04F
SHENANDOAH *   MIX PCPN  43  39  87 NE21G28   30.02F
$$

IAZ047>049-059>061-072>074-084-291500-
   CENTRAL IOWA

CITY           SKY/WX    TMP DP  RH WIND       PRES   REMARKS
AMES           CLOUDY    43  36  76 NE15G22   30.11F
ANKENY *       CLOUDY    45  37  76 NE14G22   30.10F
BOONE *        CLOUDY    41  36  81 NE16      30.11F
CHARITON *     CLOUDY    45  41  87 NE20      30.01F
DES MOINES     CLOUDY    46  36  68 NE18G26   30.08F
GRINNELL*      CLOUDY    44  38  80 NE21G26   30.09F
KNOXVILLE *    CLOUDY    45  39  81 NE15G23   30.04F
MARSHALLTOWN   CLOUDY    43  36  76 NE18      30.12F
NEWTON *       CLOUDY    45  37  76 NE20G30   30.06F
PELLA *        CLOUDY    45  39  79 NE8G16    30.07F
PERRY *        PTSUNNY   43  36  76 NE14      30.11F
$$

IAZ004>006-015-016-023>025-035-036-291500-
   NORTH CENTRAL IOWA

CITY           SKY/WX    TMP DP  RH WIND       PRES   REMARKS
ALGONA *       CLOUDY    39  34  81 NE10      30.22R WCI  32
CLARION *      CLOUDY    41  36  81 NE20      30.18F
ESTHERVILLE    CLOUDY    38  33  82 NE15      30.24R WCI  29
FORT DODGE *   CLOUDY    41  30  65 NE13      30.18F
MASON CITY     MOSUNNY   42  33  70 E18G24    30.22F
FOREST CITY *    N/A     41  30  65 NE12G18   30.21F
WEBSTER CITY * CLOUDY    43  34  70 NE17G25   30.14F
IOWA FALLS *     N/A     42  35  75 NE15      30.16F
$$

IAZ007>011-017>019-026>030-037>042-050>054-066-291500-
   NORTHEAST IOWA

CITY           SKY/WX    TMP DP  RH WIND       PRES   REMARKS
CEDAR RAPIDS   CLOUDY    45  39  79 NE23      30.08F
CHARLES CITY * PTSUNNY   41  34  75 NE14G21   30.22S
CLINTON *      CLOUDY    46  38  73 NE24G31   30.10F
DECORAH *      PTSUNNY   41  32  70 E12       30.21S
DUBUQUE        CLOUDY    45  34  65 NE17G26   30.15F
MONTICELLO *   CLOUDY    46  37  71 NE13G21   30.14F
OELWEIN *      CLOUDY    43  36  75 NE14G21   30.18S
WATERLOO       PTSUNNY   44  34  67 NE13      30.18S
$$

IAZ064-065-067-068-078-291500-
   EAST CENTRAL IOWA

CITY           SKY/WX    TMP DP  RH WIND       PRES   REMARKS
DAVENPORT      CLOUDY    46  36  68 NE22G30   30.10S
IOWA CITY      CLOUDY    48  40  73 NE22G29   30.08F
MT. PLEASANT * CLOUDY    46  45  97 NE24G30   29.98F
MUSCATINE *    CLOUDY    48  43  81 NE22G29   30.05F
QUAD CITIES    CLOUDY    48  37  65 NE21      30.06F
$$

IAZ062-063-075>077-085>089-095>099-291500-
   SOUTHEAST IOWA

CITY           SKY/WX    TMP DP  RH WIND       PRES   REMARKS
BURLINGTON     CLOUDY    48  47  96 NE23G32   29.95F
FAIRFIELD *    CLOUDY    46  43  87 NE23G32   29.99F
FORT MADISON * CLOUDY    48  46  93 NE21G33   29.96F
KEOKUK *       CLOUDY    48  46  93 NE13G22   29.98R
OSKALOOSA *    CLOUDY    45  40  84 NE17G28   30.04F
CENTERVILLE *  RAIN      45  45 100 N14G20    29.98F
OTTUMWA        CLOUDY    46  42  86 NE20G31   30.02F
WASHINGTON *   CLOUDY    46  43  87 NE23G33   30.02F
$$

ABBREVIATIONS USED IN REMARKS
   TC - TEMPERATURES IN CELSIUS
  WCI - WIND CHILL INDEX
   HX - HEAT INDEX
  VSB - VISIBILITY
$$





USA.gov is the U.S. government's official web portal to all federal, state and local government web resources and services.